GW6130 Weather Reports


time (UTC)temp
C
wind
direction
speed
KPH
gust
KPH
rain 1hr
cm
rain 24hr
cm
rain mn
cm
humidity
%
barometer
mb
20260507012818 17 7 4.8 4.8 0.00 0.00 0.00 82 1015.1
20260507012314 17 38 4.8 8.0 0.00 0.00 0.00 81 1014.7
20260507011811 17 23 1.6 3.2 0.00 0.00 0.00 81 1015.0
20260507011308 17 29 4.8 8.0 0.00 0.00 0.00 81 1014.8
20260507010808 17 54 4.8 8.0 0.00 0.00 0.00 81 1014.7
20260507010304 18 277 4.8 8.0 0.00 0.00 0.00 81 1014.5
20260507005801 18 29 4.8 4.8 0.00 0.00 0.00 80 1014.5
20260507005257 18 18 6.4 11.3 0.00 0.00 0.00 81 1014.4
20260507004754 18 96 3.2 8.0 0.00 0.00 0.00 80 1014.2
20260507004252 18 43 6.4 8.0 0.00 0.00 0.00 80 1014.1
20260507003748 18 80 3.2 4.8 0.00 0.00 0.00 80 1014.1
20260507003244 18 331 4.8 4.8 0.00 0.00 0.00 79 1014.6
20260507002740 18 74 8.0 11.3 0.00 0.00 0.00 78 1014.2
20260507002236 19 68 4.8 4.8 0.00 0.00 0.00 78 1013.8
20260507001733 19 34 1.6 3.2 0.00 0.00 0.00 77 1013.9
20260507001230 19 40 8.0 12.9 0.00 0.00 0.00 78 1014.0
20260507000726 20 45 6.4 9.7 0.00 0.00 0.00 77 1014.2
20260507000222 20 7 1.6 3.2 0.00 0.00 0.00 77 1013.7
20260506235719 20 41 3.2 3.2 0.00 0.00 0.00 77 1013.7
20260506235214 20 356 3.2 4.8 0.00 0.00 0.00 77 1013.8
20260506234711 20 303 8.0 12.9 0.00 0.00 0.00 76 1014.0
20260506234209 20 8 3.2 3.2 0.00 0.00 0.00 77 1013.6
20260506233706 20 133 8.0 11.3 0.00 0.00 0.00 76 1013.6
20260506233203 20 34 8.0 9.7 0.00 0.00 0.00 75 1013.3
20260506232659 20 49 11.3 17.7 0.00 0.00 0.00 74 1013.3
20260506232154 21 310 3.2 4.8 0.00 0.00 0.00 74 1013.4
20260506231652 21 11 11.3 17.7 0.00 0.00 0.00 73 1013.5
20260506231150 21 113 4.8 8.0 0.00 0.00 0.00 73 1013.5
20260506230647 22 345 8.0 16.1 0.00 0.00 0.00 71 1013.3
20260506230143 22 232 3.2 8.0 0.00 0.00 0.00 71 1013.2
20260506225640 23 18 4.8 8.0 0.00 0.00 0.00 71 1013.2
20260506225137 23 355 4.8 8.0 0.00 0.00 0.00 71 1012.9
20260506224633 23 60 3.2 4.8 0.00 0.00 0.00 72 1013.0
20260506224130 23 96 3.2 4.8 0.00 0.00 0.00 71 1012.9
20260506223626 24 356 11.3 16.1 0.00 0.00 0.00 70 1013.0
20260506223122 24 17 4.8 4.8 0.00 0.00 0.00 69 1013.0
20260506222619 25 22 4.8 9.7 0.00 0.00 0.00 69 1012.9
20260506222116 25 48 4.8 9.7 0.00 0.00 0.00 68 1012.8
20260506221613 26 24 8.0 12.9 0.00 0.00 0.00 66 1012.7
20260506221111 25 48 4.8 4.8 0.00 0.00 0.00 68 1012.7
20260506220607 25 41 3.2 3.2 0.00 0.00 0.00 69 1012.6
20260506215559 25 14 4.8 8.0 0.00 0.00 0.00 69 1012.8
20260506215055 25 304 4.8 9.7 0.00 0.00 0.00 69 1012.7
20260506214552 26 358 3.2 4.8 0.00 0.00 0.00 68 1012.8
20260506214050 26 338 6.4 9.7 0.00 0.00 0.00 68 1012.6
20260506213548 26 346 9.7 14.5 0.00 0.00 0.00 68 1012.5
20260506213045 26 50 1.6 3.2 0.00 0.00 0.00 69 1012.5
20260506212541 26 62 3.2 4.8 0.00 0.00 0.00 69 1012.9
20260506212036 26 46 6.4 9.7 0.00 0.00 0.00 68 1012.6
20260506211532 26 9 6.4 9.7 0.00 0.00 0.00 69 1012.4
20260506211030 27 352 8.0 9.7 0.00 0.00 0.00 69 1012.7
20260506210526 26 317 8.0 11.3 0.00 0.00 0.00 72 1012.4
20260506210023 26 14 8.0 9.7 0.00 0.00 0.00 72 1012.5
20260506205520 26 14 4.8 8.0 0.00 0.00 0.00 71 1012.5
20260506205015 26 112 1.6 1.6 0.00 0.00 0.00 72 1012.6
20260506204513 26 1 4.8 8.0 0.00 0.00 0.00 71 1012.5
20260506204010 28 99 8.0 16.1 0.00 0.00 0.00 66 1012.4
20260506203508 28 52 4.8 4.8 0.00 0.00 0.00 68 1012.5
20260506203004 29 39 3.2 3.2 0.00 0.00 0.00 66 1012.5
20260506202502 29 48 3.2 3.2 0.00 0.00 0.00 67 1012.4
20260506201957 28 61 0.0 0.0 0.00 0.00 0.00 70 1012.5
20260506201456 28 124 3.2 3.2 0.00 0.00 0.00 68 1012.6
20260506200952 28 66 1.6 3.2 0.00 0.00 0.00 69 1012.6
20260506200449 28 90 3.2 3.2 0.00 0.00 0.00 69 1012.7
20260506195945 28 46 0.0 0.0 0.00 0.00 0.00 69 1012.6
20260506195442 28 79 3.2 4.8 0.00 0.00 0.00 68 1012.9
20260506194938 29 16 4.8 4.8 0.00 0.00 0.00 67 1012.7
20260506194436 28 2 3.2 3.2 0.00 0.00 0.00 70 1012.5
20260506193932 28 89 3.2 3.2 0.00 0.00 0.00 69 1012.5
20260506193430 28 30 1.6 1.6 0.00 0.00 0.00 69 1012.6
20260506192926 28 28 0.0 0.0 0.00 0.00 0.00 73 1012.6
20260506192423 28 189 1.6 3.2 0.00 0.00 0.00 71 1012.9
20260506191920 28 92 1.6 3.2 0.00 0.00 0.00 71 1012.8
20260506191416 28 63 1.6 1.6 0.00 0.00 0.00 70 1012.9
20260506190914 28 41 1.6 1.6 0.00 0.00 0.00 68 1012.8
20260506190410 29 63 0.0 0.0 0.00 0.00 0.00 67 1013.1
20260506185907 28 253 4.8 4.8 0.00 0.00 0.00 67 1013.0
20260506185404 29 273 1.6 1.6 0.00 0.00 0.00 68 1013.0
20260506184901 29 349 1.6 1.6 0.00 0.00 0.00 66 1013.1
20260506184358 28 107 0.0 1.6 0.00 0.00 0.00 69 1013.2
20260506183855 28 103 4.8 4.8 0.00 0.00 0.00 67 1013.3
20260506183350 28 120 3.2 3.2 0.00 0.00 0.00 69 1013.4
20260506182848 27 30 1.6 1.6 0.00 0.00 0.00 72 1013.2
20260506182345 27 71 1.6 3.2 0.00 0.00 0.00 72 1013.3
20260506181842 27 163 1.6 3.2 0.00 0.00 0.00 74 1013.5
20260506181340 27 63 3.2 3.2 0.00 0.00 0.00 74 1013.5
20260506180837 27 121 1.6 1.6 0.00 0.00 0.00 75 1013.5
20260506180333 27 89 1.6 3.2 0.00 0.00 0.00 76 1013.4
20260506175830 26 172 3.2 3.2 0.00 0.00 0.00 77 1013.3
20260506175327 26 178 1.6 3.2 0.00 0.00 0.00 80 1013.7
20260506174824 26 113 4.8 8.0 0.00 0.00 0.00 81 1013.5
20260506174321 26 102 1.6 3.2 0.00 0.00 0.00 81 1013.9
20260506173818 25 74 1.6 1.6 0.00 0.00 0.00 81 1013.7
20260506173315 26 87 0.0 1.6 0.00 0.00 0.00 82 1013.7
20260506172812 25 65 1.6 3.2 0.00 0.00 0.00 83 1013.9
20260506172308 25 59 3.2 3.2 0.00 0.00 0.00 82 1013.8
20260506171806 25 35 0.0 1.6 0.00 0.00 0.00 83 1013.9
20260506171303 25 58 1.6 3.2 0.00 0.00 0.00 83 1013.7
20260506170801 25 71 1.6 1.6 0.00 0.00 0.00 84 1014.1
20260506170257 25 103 1.6 1.6 0.00 0.00 0.00 84 1014.1
20260506165755 25 53 1.6 3.2 0.00 0.00 0.00 84 1014.1
20260506165252 25 71 1.6 1.6 0.00 0.00 0.00 84 1013.9
20260506164749 25 61 3.2 4.8 0.00 0.00 0.00 84 1013.9
20260506164246 25 83 0.0 1.6 0.00 0.00 0.00 83 1014.0
20260506163743 25 52 4.8 4.8 0.00 0.00 0.00 84 1013.8
20260506163237 25 53 1.6 1.6 0.00 0.00 0.00 84 1013.9
20260506162734 25 90 1.6 1.6 0.00 0.00 0.00 84 1013.9
20260506162232 25 82 0.0 1.6 0.00 0.00 0.00 86 1013.9
20260506161729 25 73 4.8 4.8 0.00 0.00 0.00 85 1013.8
20260506161226 25 101 3.2 4.8 0.00 0.00 0.00 85 1013.8
20260506160724 25 112 3.2 4.8 0.00 0.00 0.00 86 1013.9
20260506160220 25 86 3.2 3.2 0.00 0.00 0.00 87 1013.8
20260506155719 25 11 1.6 3.2 0.00 0.00 0.00 85 1013.9
20260506155215 25 32 1.6 3.2 0.00 0.00 0.00 86 1013.8
20260506153317 23 60 3.2 3.2 0.00 0.00 0.00 91 1013.4
20260506152814 23 113 0.0 0.0 0.00 0.00 0.00 92 1013.4
20260506152311 23 74 1.6 1.6 0.00 0.00 0.00 93 1013.5
20260506151810 23 65 0.0 0.0 0.00 0.00 0.00 93 1013.2
20260506151306 23 94 0.0 1.6 0.00 0.00 0.00 93 1013.1
20260506150803 23 58 0.0 0.0 0.00 0.00 0.00 93 1013.2
20260506150304 23 83 3.2 3.2 0.00 0.00 0.00 93 1013.2
20260506145757 23 86 3.2 3.2 0.00 0.00 0.00 93 1013.0
20260506145253 23 58 0.0 0.0 0.00 0.00 0.00 92 1012.8
20260506144751 23 51 0.0 0.0 0.00 0.00 0.00 92 1013.1
20260506144248 23 17 1.6 1.6 0.00 0.00 0.00 91 1013.1
20260506143745 23 40 0.0 0.0 0.00 0.00 0.00 91 1013.0
20260506143242 23 42 0.0 1.6 0.00 0.00 0.00 91 1013.1
20260506142741 23 37 1.6 3.2 0.00 0.00 0.00 91 1012.9
20260506142238 23 42 0.0 0.0 0.00 0.00 0.00 91 1013.1
20260506141736 23 49 0.0 0.0 0.00 0.00 0.00 92 1012.8
20260506141235 23 76 0.0 1.6 0.00 0.00 0.00 92 1012.6
20260506140732 23 68 0.0 0.0 0.00 0.00 0.00 92 1012.6
20260506140229 23 72 0.0 1.6 0.00 0.00 0.00 92 1012.4
20260506135725 23 9 1.6 1.6 0.00 0.00 0.00 92 1012.4
20260506135222 23 50 0.0 0.0 0.00 0.00 0.00 92 1012.4
20260506134719 23 76 1.6 1.6 0.00 0.00 0.00 92 1011.9
20260506134215 23 33 0.0 1.6 0.00 0.00 0.00 92 1011.8
20260506133712 23 117 1.6 1.6 0.00 0.00 0.00 92 1012.0
20260506133208 23 82 1.6 1.6 0.00 0.00 0.00 92 1011.8
20260506132706 23 97 1.6 3.2 0.00 0.00 0.00 92 1011.6
20260506132203 23 97 0.0 1.6 0.00 0.00 0.00 93 1011.7
20260506131700 23 92 1.6 1.6 0.00 0.00 0.00 93 1011.8
20260506131156 23 125 3.2 3.2 0.00 0.00 0.00 93 1011.5
20260506130653 23 97 0.0 1.6 0.00 0.00 0.00 93 1011.6
20260506130151 23 119 1.6 3.2 0.00 0.00 0.00 93 1011.5
20260506125649 23 76 0.0 1.6 0.00 0.00 0.00 93 1011.1
20260506125146 23 108 3.2 3.2 0.00 0.00 0.00 93 1011.2
20260506124644 23 34 0.0 1.6 0.00 0.00 0.00 94 1011.6
20260506124142 23 132 1.6 1.6 0.00 0.00 0.00 94 1011.2
20260506123639 23 172 1.6 1.6 0.00 0.00 0.00 93 1011.2
20260506123138 23 99 1.6 3.2 0.00 0.00 0.00 93 1011.2
20260506122634 23 4 0.0 1.6 0.00 0.00 0.00 93 1011.5
20260506122132 23 299 0.0 1.6 0.00 0.00 0.00 92 1011.3
20260506121629 23 124 1.6 3.2 0.00 0.00 0.00 92 1011.2
20260506121125 23 68 0.0 0.0 0.00 0.00 0.00 92 1011.3
20260506120624 23 85 0.0 0.0 0.00 0.00 0.00 92 1011.3
20260506120121 23 45 0.0 0.0 0.00 0.00 0.00 92 1011.2
20260506115619 23 80 0.0 0.0 0.00 0.00 0.00 92 1011.2
20260506115117 23 338 1.6 1.6 0.00 0.00 0.00 91 1011.2
20260506114614 23 92 0.0 0.0 0.00 0.00 0.00 91 1011.2
20260506114112 23 63 0.0 0.0 0.00 0.00 0.00 91 1011.2
20260506113610 23 39 0.0 1.6 0.00 0.00 0.00 91 1011.0
20260506113107 23 45 1.6 1.6 0.00 0.00 0.00 91 1011.2
20260506112603 23 31 1.6 1.6 0.00 0.00 0.00 91 1011.2
20260506112101 23 42 0.0 0.0 0.00 0.00 0.00 91 1011.2
20260506111558 23 50 0.0 0.0 0.00 0.00 0.00 91 1011.2
20260506111055 23 31 0.0 0.0 0.00 0.00 0.00 91 1011.0
20260506110553 23 329 0.0 1.6 0.00 0.00 0.00 91 1011.1
20260506110050 23 92 0.0 1.6 0.00 0.00 0.00 91 1011.3
20260506105546 23 38 0.0 1.6 0.00 0.00 0.00 91 1011.3
20260506105044 23 15 0.0 1.6 0.00 0.00 0.00 91 1011.1
20260506104541 23 70 1.6 3.2 0.00 0.00 0.00 91 1011.3
20260506104039 23 291 0.0 1.6 0.00 0.00 0.00 91 1011.1
20260506103536 23 286 1.6 3.2 0.00 0.00 0.00 91 1010.9
20260506103032 23 110 0.0 1.6 0.00 0.00 0.00 91 1010.9
20260506102531 23 303 1.6 1.6 0.00 0.00 0.00 91 1011.1
20260506102028 23 46 0.0 1.6 0.00 0.00 0.00 91 1011.1
20260506101525 23 55 0.0 0.0 0.00 0.00 0.00 91 1011.1
20260506101022 23 242 1.6 1.6 0.00 0.00 0.00 90 1011.2
20260506100520 23 66 0.0 1.6 0.00 0.00 0.00 90 1011.1
20260506100018 23 39 0.0 1.6 0.00 0.00 0.00 90 1011.0
20260506095517 23 56 4.8 8.0 0.00 0.00 0.00 90 1010.9
20260506095012 23 188 1.6 4.8 0.00 0.00 0.00 91 1010.8
20260506094510 23 73 1.6 1.6 0.00 0.00 0.00 91 1010.8
20260506094008 23 73 0.0 0.0 0.00 0.00 0.00 91 1011.0
20260506093506 23 56 1.6 1.6 0.00 0.00 0.00 91 1011.0
20260506093004 23 349 3.2 3.2 0.00 0.00 0.00 91 1011.0
20260506092501 23 339 1.6 1.6 0.00 0.00 0.00 91 1010.9
20260506091957 23 61 3.2 3.2 0.00 0.00 0.00 90 1010.7
20260506091456 23 109 1.6 3.2 0.00 0.00 0.00 90 1010.7
20260506090952 23 33 1.6 1.6 0.00 0.00 0.00 90 1010.8
20260506090450 23 3 0.0 1.6 0.00 0.00 0.00 90 1010.7
20260506085946 23 211 1.6 3.2 0.00 0.00 0.00 90 1010.8
20260506085443 23 215 1.6 1.6 0.00 0.00 0.00 90 1010.8
20260506084940 23 50 0.0 1.6 0.00 0.00 0.00 90 1010.7
20260506084437 23 271 4.8 8.0 0.00 0.00 0.00 90 1010.8
20260506083933 23 269 1.6 1.6 0.00 0.00 0.00 90 1011.0
20260506083430 23 245 4.8 8.0 0.00 0.00 0.00 90 1010.9
20260506082927 23 131 0.0 1.6 0.00 0.00 0.00 90 1010.8
20260506082425 23 136 11.3 16.1 0.00 0.00 0.00 91 1010.9
20260506081920 23 139 0.0 1.6 0.00 0.00 0.00 91 1011.0
20260506081419 23 115 1.6 3.2 0.00 0.00 0.00 90 1010.9
20260506080915 23 110 0.0 1.6 0.00 0.00 0.00 90 1011.0
20260506080412 23 130 1.6 1.6 0.00 0.00 0.00 90 1011.1
20260506073356 23 198 3.2 8.0 0.00 0.00 0.00 90 1011.1
20260506072853 23 174 4.8 4.8 0.00 0.00 0.00 90 1011.0
20260506072351 23 236 1.6 1.6 0.00 0.00 0.00 90 1011.2
20260506071848 23 33 1.6 1.6 0.00 0.00 0.00 90 1011.3
20260506071346 23 74 3.2 4.8 0.00 0.00 0.00 90 1011.5
20260506070843 23 94 0.0 1.6 0.00 0.00 0.00 90 1011.3
20260506070340 23 128 3.2 3.2 0.00 0.00 0.00 90 1011.7
20260506062317 23 118 0.0 1.6 0.00 0.00 0.00 90 1011.6
20260506061813 23 141 1.6 3.2 0.00 0.00 0.00 90 1011.7
20260506061310 23 333 4.8 4.8 0.00 0.00 0.00 90 1011.8
20260506060808 23 103 1.6 1.6 0.00 0.00 0.00 89 1011.8
20260506060306 23 317 1.6 1.6 0.00 0.00 0.00 89 1011.7
20260506051237 24 259 1.6 3.2 0.00 0.00 0.00 89 1011.6
20260506050735 24 79 3.2 3.2 0.00 0.00 0.00 89 1011.8
20260506050232 24 263 3.2 4.8 0.00 0.00 0.00 88 1011.6
20260506044723 24 298 1.6 1.6 0.00 0.00 0.00 88 1011.2
20260506044220 24 78 3.2 3.2 0.00 0.00 0.00 88 1011.3
20260506043718 24 123 1.6 3.2 0.00 0.00 0.00 88 1011.0
20260506043215 24 139 1.6 8.0 0.00 0.00 0.00 88 1011.3
20260506042714 24 118 1.6 1.6 0.00 0.00 0.00 88 1011.3
20260506042212 24 21 1.6 1.6 0.00 0.00 0.00 87 1011.5
20260506041710 25 116 1.6 1.6 0.00 0.00 0.00 87 1011.3
20260506041207 25 119 1.6 3.2 0.00 0.00 0.00 87 1011.3
20260506040704 25 52 4.8 8.0 0.00 0.00 0.00 87 1011.2
20260506040201 25 335 0.0 1.6 0.00 0.00 0.00 87 1011.1
20260506035658 25 0 1.6 1.6 0.00 0.00 0.00 87 1011.0
20260506035155 25 61 1.6 3.2 0.00 0.00 0.00 87 1011.0
20260506034651 25 117 3.2 3.2 0.00 0.00 0.00 87 1010.9
20260506034149 25 143 3.2 3.2 0.00 0.00 0.00 86 1010.9
20260506033646 25 133 1.6 3.2 0.00 0.00 0.00 86 1010.9
20260506033143 25 71 3.2 3.2 0.00 0.00 0.00 86 1011.1
20260506032640 25 140 3.2 8.0 0.00 0.00 0.00 86 1010.7
20260506032137 25 155 3.2 8.0 0.00 0.00 0.00 86 1010.6
20260506031633 25 107 4.8 4.8 0.00 0.00 0.00 86 1010.6
20260506031130 25 133 3.2 3.2 0.00 0.00 0.00 85 1010.5
20260506030629 25 100 1.6 1.6 0.00 0.00 0.00 85 1010.6
20260506030126 25 339 3.2 4.8 0.00 0.00 0.00 84 1010.4
20260506025623 25 263 1.6 3.2 0.00 0.00 0.00 84 1010.5
20260506025119 25 61 3.2 4.8 0.00 0.00 0.00 84 1010.4
20260506024617 25 99 0.0 1.6 0.00 0.00 0.00 83 1010.2
20260506024112 25 135 6.4 8.0 0.00 0.00 0.00 83 1010.0
20260506023608 26 46 0.0 1.6 0.00 0.00 0.00 82 1009.9
20260506023106 26 78 3.2 4.8 0.00 0.00 0.00 81 1009.9
20260506022604 26 204 1.6 3.2 0.00 0.00 0.00 81 1009.8
20260506022101 26 77 0.0 1.6 0.00 0.00 0.00 80 1009.8
20260506021559 26 100 1.6 1.6 0.00 0.00 0.00 79 1009.6
20260506021055 26 84 3.2 3.2 0.00 0.00 0.00 79 1009.5
20260506020553 26 126 1.6 3.2 0.00 0.00 0.00 78 1009.6
20260506020050 26 119 0.0 1.6 0.00 0.00 0.00 77 1009.4
20260506015548 26 148 4.8 4.8 0.00 0.00 0.00 77 1009.4
20260506015044 26 121 1.6 1.6 0.00 0.00 0.00 77 1009.3
20260506014542 26 78 1.6 3.2 0.00 0.00 0.00 77 1009.4
20260506014037 26 104 1.6 1.6 0.00 0.00 0.00 77 1009.2
20260506013536 27 71 0.0 0.0 0.00 0.00 0.00 76 1009.2